Regional Weather Roundup
Issued by NWS

Home | Current Version | Previous Version | Text Only | Print | Product List | Glossary On
Versions: 1 2 3 4 5 6 7 8 9 10 11 12 13 14 15 16 17 18 19 20 21 22 23 24 25 26 27 28 29 30 31 32 33 34 35 36 37 38 39 40 41 42 43 44 45 46 47 48 49 50
000
ASUS43 KLMK 242102
RWRKY
KENTUCKY REGIONAL WEATHER ROUNDUP
NATIONAL WEATHER SERVICE LOUISVILLE KY
500 PM EDT SUN JUL 24 2016

NOTE "FAIR" INDICATES FEW OR NO CLOUDS BELOW 12,000 FEET
WITH NO SIGNIFICANT WEATHER AND/OR OBSTRUCTIONS TO VISIBILITY.

KYZ001>023-026-027-061>063-070>075-242200-
WESTERN AND SOUTH CENTRAL KENTUCKY

CITY           SKY/WX    TMP DP  RH WIND       PRES   REMARKS
PADUCAH        MOSUNNY   90  75  61 S5        29.95F HX 100
HENDERSON      MOSUNNY   93  77  59 S8        29.95S HX 107
OWENSBORO      MOSUNNY   94  77  57 SW5       29.97F HX 108
HOPKINSVILLE   NOT AVBL
BOWLING GREEN  SUNNY     92  74  55 VRB6      29.99F HX 101
GLASGOW        NOT AVBL
$$

KYZ024-025-028>034-038-045-046-053-242200-
NORTH CENTRAL KENTUCKY

CITY           SKY/WX    TMP DP  RH WIND       PRES   REMARKS
LOUISVILLE/SDF PTSUNNY   94  73  50 SW9       29.97F HX 103
LOUISVILLE/LOU MOSUNNY   94  72  48 SW10      29.97F HX 102
FORT KNOX      NOT AVBL
$$

KYZ035>037-039>044-047>052-055>060-089>105-242200-
NORTHEAST KENTUCKY

CITY           SKY/WX    TMP DP  RH WIND       PRES   REMARKS
LEXINGTON      MOSUNNY   94  73  50 SW7       30.01F HX 103
COVINGTON      MOSUNNY   93  72  50 W6        29.99F HX 101
FRANKFORT      MOSUNNY   92  73  53 S7        29.99F HX 100
$$

KYZ054-064>069-076>088-106>120-242200-
SOUTHEAST KENTUCKY

CITY           SKY/WX    TMP DP  RH WIND       PRES   REMARKS
JACKSON        CLOUDY    92  74  55 CALM      30.04S HX 101
LONDON         MOSUNNY   91  68  46 VRB6      30.03F HX  95
SOMERSET       MOSUNNY   88  70  55 NW5       30.03F HX  92
MIDDLESBORO    SUNNY     92  71  50 CALM      30.02F HX  99
MONTICELLO     PTCLDY   N/A N/A N/A N9        30.04F
$$





USA.gov is the U.S. government's official web portal to all federal, state and local government web resources and services.